TimeCEST,TemperatureF,Dew PointF,Humidity,Sea Level PressureIn,VisibilityMPH,Wind Direction,Wind SpeedMPH,Gust SpeedMPH,PrecipitationIn,Events,Conditions,WindDirDegrees,DateUTC
12:15 AM,50.0,48.2,94,30.24,-9999.0,SSE,6.7,-,N/A,,Clear,150,2012-10-17 22:15:00
12:45 AM,50.0,48.2,94,30.24,-9999.0,SSE,6.7,-,N/A,,Clear,150,2012-10-17 22:45:00
1:15 AM,50.0,48.2,94,30.24,-9999.0,SE,4.5,-,N/A,,Clear,140,2012-10-17 23:15:00
1:45 AM,50.0,48.2,94,30.24,5.0,SE,4.5,-,N/A,,Unknown,140,2012-10-17 23:45:00
2:15 AM,50.0,48.2,94,30.24,3.7,SE,6.7,-,N/A,,Unknown,140,2012-10-18 00:15:00
2:40 AM,50.0,48.2,94,30.24,3.1,SE,6.7,-,N/A,,Partly Cloudy,140,2012-10-18 00:40:00
2:45 AM,50.0,48.2,94,30.24,3.1,SE,6.7,-,N/A,,Partly Cloudy,140,2012-10-18 00:45:00
3:15 AM,50.0,48.2,94,30.24,3.1,SE,6.7,-,N/A,,Scattered Clouds,140,2012-10-18 01:15:00
3:45 AM,-9999,-9999,N/A,-9999,3.1,SE,6.7,-,N/A,,Overcast,140,2012-10-18 01:45:00
4:15 AM,50.0,48.2,94,30.24,3.1,SE,6.7,-,N/A,,Scattered Clouds,140,2012-10-18 02:15:00
4:45 AM,50.0,48.2,94,30.24,2.5,SE,6.7,-,N/A,,Scattered Clouds,140,2012-10-18 02:45:00
5:15 AM,48.2,48.2,100,30.24,2.5,SSE,8.9,-,N/A,,Scattered Clouds,150,2012-10-18 03:15:00
5:36 AM,48.2,48.2,100,30.24,1.9,SE,6.7,-,N/A,,Scattered Clouds,140,2012-10-18 03:36:00
5:45 AM,48.2,48.2,100,30.24,1.9,SE,6.7,-,N/A,,Partly Cloudy,140,2012-10-18 03:45:00
6:15 AM,46.4,46.4,100,30.24,1.9,SE,4.5,-,N/A,,Partly Cloudy,140,2012-10-18 04:15:00
6:45 AM,-9999,-9999,N/A,-9999,1.9,SE,4.5,-,N/A,,Mostly Cloudy,140,2012-10-18 04:45:00
7:15 AM,48.2,46.4,93,30.24,3.1,SE,4.5,-,N/A,,Scattered Clouds,140,2012-10-18 05:15:00
7:45 AM,46.4,46.4,100,30.24,3.1,SE,6.7,-,N/A,,Scattered Clouds,130,2012-10-18 05:45:00
8:05 AM,-9999,-9999,N/A,-9999,3.1,SE,6.7,-,N/A,,Clear,130,2012-10-18 06:05:00
8:15 AM,50.0,46.4,87,30.24,4.3,SE,6.7,-,N/A,,Unknown,130,2012-10-18 06:15:00
8:45 AM,50.0,46.4,87,30.24,-9999.0,SE,6.7,-,N/A,,Clear,130,2012-10-18 06:45:00
9:15 AM,51.8,46.4,82,30.24,-9999.0,SE,6.7,-,N/A,,Clear,140,2012-10-18 07:15:00
9:45 AM,-9999,-9999,N/A,-9999,-9999.0,SE,6.7,-,N/A,,Clear,130,2012-10-18 07:45:00
10:15 AM,57.2,48.2,72,30.27,-9999.0,SE,8.9,-,N/A,,Clear,140,2012-10-18 08:15:00
10:45 AM,59.0,48.2,67,30.27,-9999.0,SE,8.9,-,N/A,,Clear,130,2012-10-18 08:45:00
11:15 AM,60.8,48.2,63,30.27,-9999.0,SE,6.7,-,N/A,,Clear,130,2012-10-18 09:15:00
11:45 AM,62.6,46.4,55,30.27,-9999.0,SE,8.9,-,N/A,,Clear,130,2012-10-18 09:45:00
12:15 PM,64.4,41.0,42,30.24,-9999.0,SE,11.2,-,N/A,,Clear,130,2012-10-18 10:15:00
12:45 PM,-9999,-9999,N/A,-9999,-9999.0,SE,8.9,-,N/A,,Clear,130,2012-10-18 10:45:00
1:15 PM,66.2,41.0,40,30.21,-9999.0,SE,11.2,-,N/A,,Clear,130,2012-10-18 11:15:00
1:45 PM,68.0,39.2,35,30.21,-9999.0,SE,8.9,-,N/A,,Clear,130,2012-10-18 11:45:00
2:15 PM,68.0,41.0,37,30.21,-9999.0,SE,11.2,-,N/A,,Clear,130,2012-10-18 12:15:00
2:45 PM,68.0,35.6,30,30.18,-9999.0,SE,11.2,-,N/A,,Clear,130,2012-10-18 12:45:00
3:15 PM,68.0,37.4,33,30.18,-9999.0,SE,11.2,-,N/A,,Clear,140,2012-10-18 13:15:00
3:45 PM,-9999,-9999,N/A,-9999,-9999.0,SE,6.7,-,N/A,,Clear,130,2012-10-18 13:45:00
4:15 PM,68.0,37.4,33,30.18,-9999.0,SE,8.9,-,N/A,,Clear,130,2012-10-18 14:15:00
4:45 PM,66.2,37.4,35,30.18,-9999.0,SE,8.9,-,N/A,,Clear,130,2012-10-18 14:45:00
5:15 PM,64.4,37.4,37,30.18,-9999.0,SE,6.7,-,N/A,,Clear,130,2012-10-18 15:15:00
5:45 PM,62.6,37.4,39,30.18,-9999.0,SE,6.7,-,N/A,,Clear,130,2012-10-18 15:45:00
6:15 PM,59.0,39.2,48,30.18,-9999.0,East,4.5,-,N/A,,Clear,100,2012-10-18 16:15:00
6:45 PM,57.2,39.2,51,30.18,-9999.0,East,4.5,-,N/A,,Clear,100,2012-10-18 16:45:00
7:15 PM,55.4,41.0,58,30.18,-9999.0,East,2.2,-,N/A,,Clear,100,2012-10-18 17:15:00
7:45 PM,53.6,39.2,58,30.18,-9999.0,East,2.2,-,N/A,,Clear,100,2012-10-18 17:45:00
8:15 PM,53.6,39.2,58,30.18,-9999.0,Calm,Calm,-,N/A,,Clear,0,2012-10-18 18:15:00
8:45 PM,50.0,39.2,66,30.18,-9999.0,Calm,Calm,-,N/A,,Clear,0,2012-10-18 18:45:00
9:15 PM,48.2,39.2,71,30.18,-9999.0,Calm,Calm,-,N/A,,Clear,0,2012-10-18 19:15:00
9:45 PM,-9999,-9999,N/A,-9999,3.1,Variable,4.5,-,N/A,,Clear,0,2012-10-18 19:45:00
10:15 PM,50.0,39.2,66,30.18,-9999.0,East,2.2,-,N/A,,Clear,100,2012-10-18 20:15:00
10:45 PM,50.0,39.2,66,30.18,-9999.0,ESE,2.2,-,N/A,,Clear,110,2012-10-18 20:45:00
11:15 PM,48.2,39.2,71,30.18,-9999.0,ESE,2.2,-,N/A,,Clear,110,2012-10-18 21:15:00
11:45 PM,44.6,37.4,76,30.18,-9999.0,ESE,2.2,-,N/A,,Clear,110,2012-10-18 21:45:00